SP6RGZ-1 Weather Reports


Display with metric or nautical units.
time (UTC)temp
F
wind
direction
speed
MPH
gust
MPH
rain 1hr
in
rain 24hr
in
rain mn
in
humidity
%
barometer
mb
20260505124502 85 0.0 0.0 0.00 0.00 0.00 30 986.7
20260505123002 85 0.0 0.0 0.00 0.00 0.00 30 987.0
20260505121502 86 0.0 0.0 0.00 0.00 0.00 31 987.1
20260505120002 86 0.0 0.0 0.00 0.00 0.00 31 987.1
20260505114502 86 0.0 0.0 0.00 0.00 0.00 30 987.2
20260505113003 86 0.0 0.0 0.00 0.00 0.00 31 987.3
20260505111502 84 0.0 0.0 0.00 0.00 0.00 31 987.5
20260505101503 86 0.0 0.0 0.00 0.00 0.00 33 988.0
20260505100002 83 0.0 0.0 0.00 0.00 0.00 34 988.1
20260505094502 82 0.0 0.0 0.00 0.00 0.00 36 988.3
20260505093002 83 0.0 0.0 0.00 0.00 0.00 35 988.3
20260505091502 83 0.0 0.0 0.00 0.00 0.00 35 988.5
20260505090002 82 0.0 0.0 0.00 0.00 0.00 36 988.7
20260505084502 80 0.0 0.0 0.00 0.00 0.00 40 988.9
20260505083001 77 0.0 0.0 0.00 0.00 0.00 42 989.1
20260505081503 73 0.0 0.0 0.00 0.00 0.00 49 989.2
20260505080002 72 0.0 0.0 0.00 0.00 0.00 52 989.2
20260505074502 71 0.0 0.0 0.00 0.00 0.00 52 989.4
20260505073002 71 0.0 0.0 0.00 0.00 0.00 49 989.4
20260505071502 71 0.0 0.0 0.00 0.00 0.00 48 989.4
20260505070002 73 0.0 0.0 0.00 0.00 0.00 46 989.5
20260505064502 74 0.0 0.0 0.00 0.00 0.00 48 989.6
20260505063002 74 0.0 0.0 0.00 0.00 0.00 47 989.7
20260505061502 74 0.0 0.0 0.00 0.00 0.00 48 989.8
20260505060002 75 0.0 0.0 0.00 0.00 0.00 49 990.0
20260505054502 73 0.0 0.0 0.00 0.00 0.00 50 990.1
20260505053002 71 0.0 0.0 0.00 0.00 0.00 52 990.1
20260505051502 70 0.0 0.0 0.00 0.00 0.00 54 990.3
20260505041502 66 0.0 0.0 0.00 0.00 0.00 65 990.3
20260505040002 62 0.0 0.0 0.00 0.00 0.00 73 990.4
20260505034502 60 0.0 0.0 0.00 0.00 0.00 77 990.5
20260505033002 60 0.0 0.0 0.00 0.00 0.00 77 990.5
20260505031502 61 0.0 0.0 0.00 0.00 0.00 76 990.5
20260505030002 61 0.0 0.0 0.00 0.00 0.00 75 990.7
20260505024502 61 0.0 0.0 0.00 0.00 0.00 75 990.6
20260505023002 61 0.0 0.0 0.00 0.00 0.00 74 990.8
20260505021502 62 0.0 0.0 0.00 0.00 0.00 72 991.0
20260505020002 62 0.0 0.0 0.00 0.00 0.00 72 991.0
20260505014502 62 0.0 0.0 0.00 0.00 0.00 71 991.2
20260505013002 62 0.0 0.0 0.00 0.00 0.00 70 991.2
20260505011502 62 0.0 0.0 0.00 0.00 0.00 70 991.3
20260505010002 63 0.0 0.0 0.00 0.00 0.00 69 991.3
20260505004502 62 0.0 0.0 0.00 0.00 0.00 70 991.3
20260505003002 62 0.0 0.0 0.00 0.00 0.00 70 991.5
20260505001502 62 0.0 0.0 0.00 0.00 0.00 69 991.6
20260505000002 62 0.0 0.0 0.00 0.00 0.00 69 991.6
20260504234502 63 0.0 0.0 0.00 0.00 0.00 69 991.8
20260504233002 63 0.0 0.0 0.00 0.00 0.00 69 992.0
20260504231502 63 0.0 0.0 0.00 0.00 0.00 68 992.0
20260504230002 64 0.0 0.0 0.00 0.00 0.00 68 992.0
20260504224502 64 0.0 0.0 0.00 0.00 0.00 67 992.0
20260504223003 64 0.0 0.0 0.00 0.00 0.00 67 992.2
20260504221502 65 0.0 0.0 0.00 0.00 0.00 66 992.2
20260504220002 65 0.0 0.0 0.00 0.00 0.00 64 992.3
20260504214502 66 0.0 0.0 0.00 0.00 0.00 62 992.3
20260504213002 66 0.0 0.0 0.00 0.00 0.00 62 992.2
20260504211502 67 0.0 0.0 0.00 0.00 0.00 60 992.2
20260504210002 66 0.0 0.0 0.00 0.00 0.00 61 992.2
20260504204502 66 0.0 0.0 0.00 0.00 0.00 64 992.2
20260504203002 68 0.0 0.0 0.00 0.00 0.00 60 992.2
20260504201502 68 0.0 0.0 0.00 0.00 0.00 59 992.2
20260504200002 69 0.0 0.0 0.00 0.00 0.00 57 992.1
20260504194502 69 0.0 0.0 0.00 0.00 0.00 55 992.1
20260504193002 70 0.0 0.0 0.00 0.00 0.00 55 992.2
20260504191502 70 0.0 0.0 0.00 0.00 0.00 54 992.1
20260504190002 70 0.0 0.0 0.00 0.00 0.00 52 992.0
20260504184502 71 0.0 0.0 0.00 0.00 0.00 50 991.8
20260504183002 73 0.0 0.0 0.00 0.00 0.00 47 991.8
20260504181502 74 0.0 0.0 0.00 0.00 0.00 45 991.7
20260504180002 75 0.0 0.0 0.00 0.00 0.00 42 991.6
20260504174502 76 0.0 0.0 0.00 0.00 0.00 41 991.5
20260504173002 77 0.0 0.0 0.00 0.00 0.00 40 991.6
20260504171502 77 0.0 0.0 0.00 0.00 0.00 39 991.6